| time (UTC) | temp C | wind direction | speed KPH | gust KPH | rain 1hr cm | rain 24hr cm | rain mn cm | humidity % | barometer mb |
| 20260507080501 | 16 | 227 | 4.8 | 9.7 | 0.00 | 0.00 | 0.00 | 73 | 1016.3 |
| 20260507080000 | 16 | 226 | 4.8 | 8.0 | 0.00 | 0.00 | 0.00 | 72 | 1016.3 |
| 20260507075500 | 17 | 217 | 3.2 | 8.0 | 0.00 | 0.00 | 0.00 | 72 | 1016.4 |
| 20260507075000 | 17 | 199 | 1.6 | 6.4 | 0.00 | 0.00 | 0.00 | 72 | 1016.4 |
| 20260507074500 | 17 | 244 | 1.6 | 6.4 | 0.00 | 0.00 | 0.00 | 72 | 1016.3 |
| 20260507074003 | 17 | 220 | 1.6 | 6.4 | 0.00 | 0.00 | 0.00 | 73 | 1016.3 |
| 20260507073500 | 17 | 219 | 1.6 | 9.7 | 0.00 | 0.00 | 0.00 | 73 | 1016.2 |
| 20260507073003 | 16 | 237 | 3.2 | 9.7 | 0.00 | 0.00 | 0.00 | 73 | 1016.2 |
| 20260507072503 | 16 | 221 | 3.2 | 6.4 | 0.00 | 0.00 | 0.00 | 75 | 1016.2 |
| 20260507071003 | 16 | 240 | 4.8 | 8.0 | 0.00 | 0.00 | 0.00 | 77 | 1016.2 |
| 20260507070006 | 16 | 247 | 4.8 | 9.7 | 0.00 | 0.00 | 0.00 | 77 | 1016.2 |
| 20260507065506 | 16 | 217 | 4.8 | 9.7 | 0.00 | 0.00 | 0.00 | 77 | 1016.4 |
| 20260507065003 | 16 | 222 | 4.8 | 11.3 | 0.00 | 0.00 | 0.00 | 76 | 1016.4 |
| 20260507064503 | 16 | 229 | 4.8 | 11.3 | 0.00 | 0.00 | 0.00 | 76 | 1016.3 |
| 20260507064003 | 16 | 236 | 4.8 | 11.3 | 0.00 | 0.00 | 0.00 | 76 | 1016.3 |
| 20260507063500 | 16 | 227 | 4.8 | 11.3 | 0.00 | 0.00 | 0.00 | 77 | 1016.3 |
| 20260507063004 | 16 | 232 | 4.8 | 9.7 | 0.00 | 0.00 | 0.00 | 76 | 1016.3 |
| 20260507062503 | 16 | 190 | 4.8 | 12.9 | 0.00 | 0.00 | 0.00 | 76 | 1016.2 |
| 20260507062004 | 16 | 233 | 6.4 | 14.5 | 0.00 | 0.00 | 0.00 | 76 | 1016.1 |
| 20260507061503 | 16 | 220 | 4.8 | 14.5 | 0.00 | 0.00 | 0.00 | 76 | 1016.1 |
| 20260507061001 | 16 | 249 | 4.8 | 9.7 | 0.00 | 0.00 | 0.00 | 76 | 1016.1 |
| 20260507060503 | 16 | 203 | 3.2 | 9.7 | 0.00 | 0.00 | 0.00 | 75 | 1016.1 |
| 20260507060004 | 16 | 209 | 1.6 | 6.4 | 0.00 | 0.00 | 0.00 | 75 | 1016.1 |
| 20260507055502 | 16 | 223 | 1.6 | 6.4 | 0.00 | 0.00 | 0.00 | 75 | 1016.2 |
| 20260507055002 | 16 | 223 | 0.0 | 3.2 | 0.00 | 0.00 | 0.00 | 74 | 1016.1 |
| 20260507054503 | 16 | 200 | 1.6 | 4.8 | 0.00 | 0.00 | 0.00 | 75 | 1016.1 |
| 20260507054003 | 16 | 229 | 1.6 | 12.9 | 0.00 | 0.00 | 0.00 | 75 | 1016.1 |
| 20260507053459 | 16 | 202 | 1.6 | 9.7 | 0.00 | 0.00 | 0.00 | 75 | 1016.1 |
| 20260507053004 | 16 | 205 | 1.6 | 11.3 | 0.00 | 0.00 | 0.00 | 75 | 1016.1 |
| 20260507052500 | 16 | 158 | 3.2 | 6.4 | 0.00 | 0.00 | 0.00 | 76 | 1015.9 |
| 20260507052000 | 16 | 139 | 1.6 | 6.4 | 0.00 | 0.00 | 0.00 | 77 | 1015.9 |
| 20260507051000 | 16 | 152 | 1.6 | 6.4 | 0.00 | 0.00 | 0.00 | 76 | 1015.9 |
| 20260507050503 | 16 | 162 | 1.6 | 8.0 | 0.00 | 0.00 | 0.00 | 76 | 1015.7 |
| 20260507050003 | 15 | 155 | 1.6 | 8.0 | 0.00 | 0.00 | 0.00 | 75 | 1015.8 |
| 20260507045004 | 15 | 147 | 0.0 | 4.8 | 0.00 | 0.00 | 0.00 | 76 | 1015.7 |
| 20260507043959 | 15 | 213 | 0.0 | 3.2 | 0.00 | 0.00 | 0.00 | 77 | 1015.7 |
| 20260507043504 | 15 | 213 | 1.6 | 6.4 | 0.00 | 0.00 | 0.00 | 77 | 1015.7 |
| 20260507043000 | 15 | 210 | 3.2 | 6.4 | 0.00 | 0.00 | 0.00 | 76 | 1015.7 |
| 20260507042503 | 15 | 244 | 3.2 | 6.4 | 0.00 | 0.00 | 0.00 | 75 | 1015.7 |
| 20260507041959 | 15 | 215 | 1.6 | 4.8 | 0.00 | 0.00 | 0.00 | 75 | 1015.6 |
| 20260507041500 | 16 | 218 | 1.6 | 4.8 | 0.00 | 0.00 | 0.00 | 75 | 1015.4 |
| 20260507041000 | 16 | 225 | 3.2 | 8.0 | 0.00 | 0.00 | 0.00 | 75 | 1015.3 |
| 20260507040504 | 16 | 217 | 3.2 | 8.0 | 0.00 | 0.00 | 0.00 | 75 | 1015.4 |
| 20260507040002 | 16 | 211 | 1.6 | 6.4 | 0.00 | 0.00 | 0.00 | 75 | 1015.3 |
| 20260507035500 | 16 | 216 | 0.0 | 6.4 | 0.00 | 0.00 | 0.00 | 75 | 1015.2 |
| 20260507035000 | 16 | 138 | 1.6 | 4.8 | 0.00 | 0.00 | 0.00 | 76 | 1015.1 |
| 20260507034502 | 16 | 138 | 3.2 | 6.4 | 0.00 | 0.00 | 0.00 | 76 | 1015.2 |
| 20260507034002 | 16 | 173 | 1.6 | 6.4 | 0.00 | 0.00 | 0.00 | 77 | 1015.0 |
| 20260507033459 | 15 | 142 | 1.6 | 4.8 | 0.00 | 0.00 | 0.00 | 77 | 1014.9 |
| 20260507033002 | 15 | 142 | 1.6 | 4.8 | 0.00 | 0.00 | 0.00 | 78 | 1015.0 |
| 20260507032000 | 15 | 223 | 0.0 | 1.6 | 0.00 | 0.00 | 0.00 | 79 | 1014.9 |
| 20260507031500 | 16 | 223 | 0.0 | 1.6 | 0.00 | 0.00 | 0.00 | 79 | 1014.8 |
| 20260507031000 | 16 | 223 | 0.0 | 1.6 | 0.00 | 0.00 | 0.00 | 79 | 1014.8 |
| 20260507030005 | 16 | 223 | 0.0 | 1.6 | 0.00 | 0.00 | 0.00 | 79 | 1014.8 |
| 20260507025000 | 16 | 223 | 1.6 | 4.8 | 0.00 | 0.00 | 0.00 | 79 | 1014.6 |
| 20260507024459 | 16 | 223 | 3.2 | 4.8 | 0.00 | 0.00 | 0.00 | 79 | 1014.6 |
| 20260507024000 | 16 | 234 | 1.6 | 4.8 | 0.00 | 0.00 | 0.00 | 79 | 1014.6 |
| 20260507023502 | 16 | 229 | 0.0 | 3.2 | 0.00 | 0.00 | 0.00 | 79 | 1014.6 |
| 20260507022959 | 16 | 240 | 0.0 | 1.6 | 0.00 | 0.00 | 0.00 | 79 | 1014.5 |
| 20260507022459 | 16 | 240 | 0.0 | 0.0 | 0.00 | 0.00 | 0.00 | 79 | 1014.4 |
| 20260507022003 | 16 | 240 | 0.0 | 1.6 | 0.00 | 0.00 | 0.00 | 79 | 1014.3 |
| 20260507021500 | 16 | 240 | 1.6 | 4.8 | 0.00 | 0.00 | 0.00 | 79 | 1014.3 |
| 20260507021000 | 16 | 241 | 3.2 | 6.4 | 0.00 | 0.00 | 0.00 | 79 | 1014.3 |
| 20260507020500 | 16 | 250 | 3.2 | 6.4 | 0.00 | 0.00 | 0.00 | 79 | 1014.3 |
| 20260507020003 | 16 | 262 | 3.2 | 6.4 | 0.00 | 0.00 | 0.00 | 80 | 1014.3 |
| 20260507015500 | 16 | 266 | 1.6 | 4.8 | 0.00 | 0.00 | 0.00 | 79 | 1014.2 |
| 20260507014959 | 16 | 263 | 0.0 | 3.2 | 0.00 | 0.00 | 0.00 | 79 | 1014.1 |
| 20260507014502 | 16 | 292 | 0.0 | 3.2 | 0.00 | 0.00 | 0.00 | 79 | 1014.2 |
| 20260507014000 | 16 | 292 | 0.0 | 3.2 | 0.00 | 0.00 | 0.00 | 78 | 1014.1 |
| 20260507013500 | 16 | 292 | 1.6 | 3.2 | 0.00 | 0.00 | 0.00 | 78 | 1014.0 |
| 20260507013003 | 16 | 292 | 0.0 | 3.2 | 0.00 | 0.00 | 0.00 | 78 | 1014.1 |
| 20260507012502 | 16 | 292 | 0.0 | 3.2 | 0.00 | 0.00 | 0.00 | 78 | 1014.1 |
| 20260507011959 | 16 | 290 | 0.0 | 4.8 | 0.00 | 0.00 | 0.00 | 78 | 1014.0 |
| 20260507011459 | 16 | 294 | 0.0 | 1.6 | 0.00 | 0.00 | 0.00 | 77 | 1013.9 |
| 20260507011002 | 16 | 296 | 0.0 | 1.6 | 0.00 | 0.00 | 0.00 | 77 | 1014.1 |
| 20260507010503 | 16 | 296 | 0.0 | 1.6 | 0.00 | 0.00 | 0.00 | 76 | 1013.9 |
| 20260507010003 | 16 | 296 | 0.0 | 1.6 | 0.00 | 0.00 | 0.00 | 76 | 1013.8 |
| 20260507005502 | 16 | 252 | 1.6 | 4.8 | 0.00 | 0.00 | 0.00 | 76 | 1013.8 |
| 20260507005002 | 16 | 252 | 3.2 | 4.8 | 0.00 | 0.00 | 0.00 | 75 | 1013.9 |
| 20260507004503 | 16 | 252 | 1.6 | 4.8 | 0.00 | 0.00 | 0.00 | 74 | 1013.9 |
| 20260507004002 | 16 | 295 | 0.0 | 3.2 | 0.00 | 0.00 | 0.00 | 74 | 1013.9 |
| 20260507003459 | 16 | 284 | 0.0 | 3.2 | 0.00 | 0.00 | 0.00 | 73 | 1013.8 |
| 20260507003003 | 16 | 285 | 0.0 | 3.2 | 0.00 | 0.00 | 0.00 | 72 | 1013.9 |
| 20260507002501 | 17 | 295 | 0.0 | 3.2 | 0.00 | 0.00 | 0.00 | 72 | 1013.9 |
| 20260507002003 | 17 | 248 | 1.6 | 6.4 | 0.00 | 0.00 | 0.00 | 71 | 1013.9 |
| 20260507001502 | 17 | 286 | 3.2 | 6.4 | 0.00 | 0.00 | 0.00 | 71 | 1013.8 |
| 20260507001000 | 17 | 289 | 3.2 | 4.8 | 0.00 | 0.00 | 0.00 | 70 | 1013.9 |
| 20260507000502 | 17 | 276 | 3.2 | 4.8 | 0.00 | 0.00 | 0.00 | 69 | 1014.0 |
| 20260507000000 | 17 | 257 | 3.2 | 6.4 | 0.00 | 0.00 | 0.00 | 69 | 1013.9 |
| 20260506235500 | 17 | 280 | 3.2 | 8.0 | 0.00 | 0.00 | 0.00 | 68 | 1013.9 |
| 20260506234000 | 18 | 263 | 4.8 | 8.0 | 0.00 | 0.00 | 0.00 | 66 | 1013.9 |
| 20260506233500 | 18 | 261 | 4.8 | 14.5 | 0.00 | 0.00 | 0.00 | 66 | 1013.9 |
| 20260506232959 | 18 | 283 | 6.4 | 12.9 | 0.00 | 0.00 | 0.00 | 66 | 1013.9 |
| 20260506231459 | 18 | 269 | 6.4 | 14.5 | 0.00 | 0.00 | 0.00 | 64 | 1013.8 |
| 20260506230959 | 18 | 266 | 4.8 | 14.5 | 0.00 | 0.00 | 0.00 | 64 | 1013.8 |
| 20260506230500 | 18 | 267 | 4.8 | 9.7 | 0.00 | 0.00 | 0.00 | 63 | 1013.8 |
| 20260506230003 | 18 | 265 | 4.8 | 11.3 | 0.00 | 0.00 | 0.00 | 62 | 1013.7 |
| 20260506225502 | 18 | 271 | 4.8 | 11.3 | 0.00 | 0.00 | 0.00 | 62 | 1013.6 |
| 20260506225000 | 18 | 319 | 4.8 | 14.5 | 0.00 | 0.00 | 0.00 | 61 | 1013.6 |
| 20260506224458 | 18 | 252 | 4.8 | 12.9 | 0.00 | 0.00 | 0.00 | 61 | 1013.5 |
| 20260506223503 | 18 | 265 | 8.0 | 16.1 | 0.00 | 0.00 | 0.00 | 61 | 1013.3 |
| 20260506222958 | 19 | 257 | 6.4 | 12.9 | 0.00 | 0.00 | 0.00 | 60 | 1013.1 |
| 20260506222459 | 18 | 219 | 6.4 | 11.3 | 0.00 | 0.00 | 0.00 | 60 | 1013.0 |
| 20260506222000 | 18 | 216 | 4.8 | 11.3 | 0.00 | 0.00 | 0.00 | 60 | 1013.1 |
| 20260506221502 | 18 | 213 | 3.2 | 9.7 | 0.00 | 0.00 | 0.00 | 60 | 1013.0 |
| 20260506221001 | 18 | 207 | 3.2 | 6.4 | 0.00 | 0.00 | 0.00 | 60 | 1013.1 |
| 20260506220459 | 19 | 219 | 4.8 | 8.0 | 0.00 | 0.00 | 0.00 | 60 | 1013.0 |
| 20260506220003 | 19 | 207 | 4.8 | 8.0 | 0.00 | 0.00 | 0.00 | 60 | 1013.0 |
| 20260506215503 | 19 | 245 | 4.8 | 8.0 | 0.00 | 0.00 | 0.00 | 60 | 1013.0 |
| 20260506214503 | 19 | 211 | 4.8 | 8.0 | 0.00 | 0.00 | 0.00 | 59 | 1012.8 |
| 20260506214003 | 19 | 225 | 4.8 | 6.4 | 0.00 | 0.00 | 0.00 | 59 | 1012.7 |
| 20260506213003 | 19 | 257 | 4.8 | 6.4 | 0.00 | 0.00 | 0.00 | 59 | 1012.7 |
| 20260506212503 | 19 | 243 | 4.8 | 8.0 | 0.00 | 0.00 | 0.00 | 59 | 1012.6 |
| 20260506212003 | 19 | 242 | 4.8 | 8.0 | 0.00 | 0.00 | 0.00 | 59 | 1012.6 |
| 20260506211502 | 19 | 232 | 4.8 | 8.0 | 0.00 | 0.00 | 0.00 | 58 | 1012.7 |
| 20260506211003 | 20 | 211 | 4.8 | 8.0 | 0.00 | 0.00 | 0.00 | 58 | 1012.6 |
| 20260506210503 | 20 | 238 | 4.8 | 8.0 | 0.00 | 0.00 | 0.00 | 58 | 1012.6 |
| 20260506210003 | 20 | 254 | 4.8 | 8.0 | 0.00 | 0.00 | 0.00 | 57 | 1012.6 |
| 20260506205503 | 20 | 249 | 3.2 | 8.0 | 0.00 | 0.00 | 0.00 | 57 | 1012.6 |
| 20260506205003 | 20 | 217 | 1.6 | 6.4 | 0.00 | 0.00 | 0.00 | 57 | 1012.4 |
| 20260506204500 | 20 | 210 | 1.6 | 6.4 | 0.00 | 0.00 | 0.00 | 57 | 1012.4 |
| 20260506204003 | 20 | 200 | 1.6 | 6.4 | 0.00 | 0.00 | 0.00 | 57 | 1012.4 |
| 20260506203503 | 20 | 193 | 1.6 | 6.4 | 0.00 | 0.00 | 0.00 | 57 | 1012.3 |
| 20260506203004 | 20 | 225 | 0.0 | 6.4 | 0.00 | 0.00 | 0.00 | 57 | 1012.4 |
| 20260506202004 | 20 | 196 | 0.0 | 4.8 | 0.00 | 0.00 | 0.00 | 57 | 1012.2 |
| 20260506201504 | 20 | 180 | 0.0 | 1.6 | 0.00 | 0.00 | 0.00 | 57 | 1012.3 |
| 20260506201003 | 20 | 158 | 1.6 | 8.0 | 0.00 | 0.00 | 0.00 | 57 | 1012.3 |
| 20260506200503 | 20 | 158 | 4.8 | 12.9 | 0.00 | 0.00 | 0.00 | 57 | 1012.2 |
| 20260506200004 | 20 | 138 | 6.4 | 12.9 | 0.00 | 0.00 | 0.00 | 57 | 1012.0 |
| 20260506195003 | 20 | 146 | 6.4 | 12.9 | 0.00 | 0.00 | 0.00 | 56 | 1012.0 |
| 20260506194503 | 20 | 157 | 8.0 | 12.9 | 0.00 | 0.00 | 0.00 | 56 | 1012.0 |
| 20260506194003 | 20 | 132 | 6.4 | 11.3 | 0.00 | 0.00 | 0.00 | 57 | 1012.0 |
| 20260506193502 | 20 | 136 | 1.6 | 8.0 | 0.00 | 0.00 | 0.00 | 57 | 1011.9 |
| 20260506191002 | 21 | 146 | 8.0 | 14.5 | 0.00 | 0.00 | 0.00 | 53 | 1011.6 |
| 20260506190503 | 21 | 136 | 6.4 | 14.5 | 0.00 | 0.00 | 0.00 | 53 | 1011.6 |
| 20260506190005 | 21 | 136 | 6.4 | 16.1 | 0.00 | 0.00 | 0.00 | 53 | 1011.6 |
| 20260506185504 | 21 | 122 | 6.4 | 16.1 | 0.00 | 0.00 | 0.00 | 53 | 1011.5 |
| 20260506185003 | 21 | 121 | 4.8 | 14.5 | 0.00 | 0.00 | 0.00 | 54 | 1011.6 |
| 20260506184503 | 21 | 131 | 3.2 | 11.3 | 0.00 | 0.00 | 0.00 | 54 | 1011.4 |
| 20260506184003 | 21 | 108 | 3.2 | 9.7 | 0.00 | 0.00 | 0.00 | 54 | 1011.4 |
| 20260506183503 | 22 | 115 | 4.8 | 9.7 | 0.00 | 0.00 | 0.00 | 54 | 1011.4 |
| 20260506182003 | 22 | 99 | 4.8 | 9.7 | 0.00 | 0.00 | 0.00 | 53 | 1011.4 |
| 20260506181503 | 22 | 97 | 4.8 | 9.7 | 0.00 | 0.00 | 0.00 | 53 | 1011.3 |
| 20260506181003 | 22 | 98 | 4.8 | 9.7 | 0.00 | 0.00 | 0.00 | 53 | 1011.2 |
| 20260506180504 | 22 | 105 | 4.8 | 9.7 | 0.00 | 0.00 | 0.00 | 53 | 1011.3 |
| 20260506180004 | 22 | 90 | 4.8 | 6.4 | 0.00 | 0.00 | 0.00 | 53 | 1011.3 |
| 20260506175503 | 22 | 96 | 3.2 | 6.4 | 0.00 | 0.00 | 0.00 | 52 | 1011.3 |
| 20260506174459 | 22 | 104 | 3.2 | 8.0 | 0.00 | 0.00 | 0.00 | 52 | 1011.1 |
| 20260506174003 | 22 | 103 | 3.2 | 6.4 | 0.00 | 0.00 | 0.00 | 52 | 1011.1 |
| 20260506173503 | 23 | 105 | 3.2 | 9.7 | 0.00 | 0.00 | 0.00 | 52 | 1011.0 |
| 20260506172500 | 23 | 98 | 3.2 | 6.4 | 0.00 | 0.00 | 0.00 | 51 | 1011.1 |
| 20260506172003 | 23 | 105 | 3.2 | 6.4 | 0.00 | 0.00 | 0.00 | 50 | 1011.1 |
| 20260506171503 | 23 | 101 | 3.2 | 6.4 | 0.00 | 0.00 | 0.00 | 49 | 1011.1 |
| 20260506171003 | 23 | 98 | 3.2 | 6.4 | 0.00 | 0.00 | 0.00 | 49 | 1011.2 |
| 20260506170504 | 24 | 96 | 3.2 | 6.4 | 0.00 | 0.00 | 0.00 | 49 | 1011.2 |
| 20260506170003 | 24 | 99 | 3.2 | 6.4 | 0.00 | 0.00 | 0.00 | 49 | 1011.2 |
| 20260506165503 | 24 | 93 | 1.6 | 4.8 | 0.00 | 0.00 | 0.00 | 48 | 1011.3 |
| 20260506164503 | 25 | 119 | 1.6 | 4.8 | 0.00 | 0.00 | 0.00 | 47 | 1011.1 |
| 20260506163004 | 25 | 111 | 3.2 | 9.7 | 0.00 | 0.00 | 0.00 | 46 | 1011.1 |
| 20260506162503 | 25 | 123 | 3.2 | 9.7 | 0.00 | 0.00 | 0.00 | 46 | 1011.3 |
| 20260506162004 | 25 | 123 | 3.2 | 14.5 | 0.00 | 0.00 | 0.00 | 47 | 1011.3 |
| 20260506161504 | 25 | 96 | 3.2 | 14.5 | 0.00 | 0.00 | 0.00 | 47 | 1011.4 |
| 20260506161004 | 25 | 131 | 1.6 | 9.7 | 0.00 | 0.00 | 0.00 | 46 | 1011.4 |
| 20260506160503 | 25 | 135 | 3.2 | 6.4 | 0.00 | 0.00 | 0.00 | 46 | 1011.3 |
| 20260506155502 | 25 | 94 | 4.8 | 19.3 | 0.00 | 0.00 | 0.00 | 44 | 1011.3 |
| 20260506155003 | 26 | 127 | 3.2 | 11.3 | 0.00 | 0.00 | 0.00 | 44 | 1011.3 |
| 20260506154502 | 26 | 118 | 3.2 | 11.3 | 0.00 | 0.00 | 0.00 | 44 | 1011.3 |
| 20260506154003 | 26 | 110 | 3.2 | 9.7 | 0.00 | 0.00 | 0.00 | 45 | 1011.4 |
| 20260506153503 | 26 | 90 | 4.8 | 9.7 | 0.00 | 0.00 | 0.00 | 44 | 1011.5 |
| 20260506153003 | 26 | 96 | 4.8 | 11.3 | 0.00 | 0.00 | 0.00 | 43 | 1011.6 |
| 20260506152500 | 26 | 123 | 6.4 | 16.1 | 0.00 | 0.00 | 0.00 | 43 | 1011.6 |
| 20260506152000 | 26 | 139 | 8.0 | 17.7 | 0.00 | 0.00 | 0.00 | 44 | 1011.6 |
| 20260506151501 | 26 | 90 | 4.8 | 17.7 | 0.00 | 0.00 | 0.00 | 43 | 1011.6 |
| 20260506150005 | 26 | 74 | 3.2 | 9.7 | 0.00 | 0.00 | 0.00 | 43 | 1011.6 |
| 20260506145004 | 26 | 103 | 3.2 | 17.7 | 0.00 | 0.00 | 0.00 | 42 | 1011.8 |
| 20260506144503 | 26 | 65 | 1.6 | 4.8 | 0.00 | 0.00 | 0.00 | 42 | 1011.7 |
| 20260506144003 | 26 | 173 | 1.6 | 4.8 | 0.00 | 0.00 | 0.00 | 44 | 1011.9 |
| 20260506143503 | 26 | 198 | 3.2 | 9.7 | 0.00 | 0.00 | 0.00 | 45 | 1011.9 |
| 20260506142003 | 26 | 127 | 4.8 | 14.5 | 0.00 | 0.00 | 0.00 | 42 | 1011.9 |
| 20260506141502 | 26 | 86 | 4.8 | 14.5 | 0.00 | 0.00 | 0.00 | 44 | 1012.0 |
| 20260506141003 | 26 | 137 | 3.2 | 11.3 | 0.00 | 0.00 | 0.00 | 42 | 1012.0 |
| 20260506140503 | 26 | 74 | 3.2 | 11.3 | 0.00 | 0.00 | 0.00 | 42 | 1012.0 |
| 20260506140005 | 26 | 115 | 4.8 | 11.3 | 0.00 | 0.00 | 0.00 | 41 | 1012.0 |
| 20260506135503 | 26 | 130 | 6.4 | 19.3 | 0.00 | 0.00 | 0.00 | 43 | 1012.1 |
| 20260506135003 | 26 | 117 | 4.8 | 16.1 | 0.00 | 0.00 | 0.00 | 44 | 1012.1 |
| 20260506134503 | 26 | 106 | 4.8 | 12.9 | 0.00 | 0.00 | 0.00 | 43 | 1012.1 |
| 20260506134004 | 26 | 90 | 4.8 | 14.5 | 0.00 | 0.00 | 0.00 | 43 | 1012.2 |
| 20260506133003 | 27 | 74 | 4.8 | 14.5 | 0.00 | 0.00 | 0.00 | 41 | 1012.4 |
| 20260506132503 | 27 | 94 | 4.8 | 14.5 | 0.00 | 0.00 | 0.00 | 41 | 1012.4 |
| 20260506132003 | 27 | 171 | 3.2 | 8.0 | 0.00 | 0.00 | 0.00 | 41 | 1012.5 |
| 20260506131504 | 27 | 221 | 1.6 | 8.0 | 0.00 | 0.00 | 0.00 | 44 | 1012.5 |
| 20260506131003 | 27 | 150 | 4.8 | 14.5 | 0.00 | 0.00 | 0.00 | 46 | 1012.6 |
| 20260506130503 | 26 | 141 | 8.0 | 17.7 | 0.00 | 0.00 | 0.00 | 44 | 1012.6 |
| 20260506130003 | 27 | 76 | 6.4 | 17.7 | 0.00 | 0.00 | 0.00 | 43 | 1012.7 |
| 20260506125504 | 27 | 111 | 4.8 | 14.5 | 0.00 | 0.00 | 0.00 | 42 | 1012.8 |
| 20260506124503 | 27 | 254 | 3.2 | 14.5 | 0.00 | 0.00 | 0.00 | 46 | 1012.9 |
| 20260506123501 | 26 | 80 | 3.2 | 14.5 | 0.00 | 0.00 | 0.00 | 42 | 1013.1 |
| 20260506123000 | 26 | 153 | 3.2 | 12.9 | 0.00 | 0.00 | 0.00 | 43 | 1013.2 |
| 20260506122500 | 26 | 121 | 3.2 | 12.9 | 0.00 | 0.00 | 0.00 | 44 | 1013.2 |
| 20260506122000 | 26 | 200 | 4.8 | 19.3 | 0.00 | 0.00 | 0.00 | 48 | 1013.2 |
| 20260506121501 | 26 | 78 | 4.8 | 19.3 | 0.00 | 0.00 | 0.00 | 45 | 1013.3 |
| 20260506121003 | 26 | 126 | 6.4 | 14.5 | 0.00 | 0.00 | 0.00 | 44 | 1013.2 |
| 20260506120500 | 27 | 105 | 4.8 | 16.1 | 0.00 | 0.00 | 0.00 | 43 | 1013.3 |
| 20260506120004 | 27 | 142 | 3.2 | 14.5 | 0.00 | 0.00 | 0.00 | 44 | 1013.4 |
| 20260506115503 | 27 | 72 | 3.2 | 11.3 | 0.00 | 0.00 | 0.00 | 44 | 1013.4 |
| 20260506115004 | 27 | 254 | 4.8 | 11.3 | 0.00 | 0.00 | 0.00 | 44 | 1013.5 |
| 20260506114503 | 27 | 238 | 3.2 | 9.7 | 0.00 | 0.00 | 0.00 | 46 | 1013.5 |
| 20260506113503 | 26 | 119 | 3.2 | 9.7 | 0.00 | 0.00 | 0.00 | 46 | 1013.6 |
| 20260506113003 | 26 | 119 | 3.2 | 11.3 | 0.00 | 0.00 | 0.00 | 44 | 1013.6 |
| 20260506112503 | 26 | 136 | 1.6 | 11.3 | 0.00 | 0.00 | 0.00 | 45 | 1013.5 |
| 20260506112004 | 26 | 233 | 1.6 | 4.8 | 0.00 | 0.00 | 0.00 | 46 | 1013.7 |
| 20260506111503 | 26 | 93 | 1.6 | 8.0 | 0.00 | 0.00 | 0.00 | 46 | 1013.7 |
| 20260506111003 | 26 | 223 | 3.2 | 14.5 | 0.00 | 0.00 | 0.00 | 46 | 1013.9 |
| 20260506110503 | 25 | 260 | 4.8 | 14.5 | 0.00 | 0.00 | 0.00 | 48 | 1013.9 |
| 20260506110004 | 25 | 169 | 8.0 | 20.9 | 0.00 | 0.00 | 0.00 | 47 | 1013.9 |
| 20260506105503 | 25 | 138 | 6.4 | 20.9 | 0.00 | 0.00 | 0.00 | 47 | 1014.0 |
| 20260506105003 | 25 | 94 | 4.8 | 16.1 | 0.00 | 0.00 | 0.00 | 44 | 1014.0 |
| 20260506104502 | 25 | 160 | 4.8 | 16.1 | 0.00 | 0.00 | 0.00 | 45 | 1014.1 |
| 20260506104003 | 25 | 108 | 1.6 | 9.7 | 0.00 | 0.00 | 0.00 | 44 | 1014.1 |
| 20260506103503 | 25 | 235 | 1.6 | 8.0 | 0.00 | 0.00 | 0.00 | 46 | 1014.2 |
| 20260506103004 | 25 | 125 | 3.2 | 8.0 | 0.00 | 0.00 | 0.00 | 45 | 1014.3 |
| 20260506102503 | 25 | 203 | 4.8 | 11.3 | 0.00 | 0.00 | 0.00 | 45 | 1014.4 |
| 20260506102003 | 25 | 212 | 3.2 | 11.3 | 0.00 | 0.00 | 0.00 | 46 | 1014.4 |
| 20260506101503 | 25 | 164 | 1.6 | 8.0 | 0.00 | 0.00 | 0.00 | 45 | 1014.4 |
| 20260506101003 | 25 | 82 | 3.2 | 12.9 | 0.00 | 0.00 | 0.00 | 46 | 1014.5 |
| 20260506100500 | 25 | 223 | 3.2 | 12.9 | 0.00 | 0.00 | 0.00 | 48 | 1014.6 |
| 20260506095959 | 25 | 272 | 1.6 | 9.7 | 0.00 | 0.00 | 0.00 | 45 | 1014.7 |
| 20260506095502 | 25 | 316 | 3.2 | 11.3 | 0.00 | 0.00 | 0.00 | 45 | 1014.8 |
| 20260506094503 | 25 | 262 | 4.8 | 14.5 | 0.00 | 0.00 | 0.00 | 48 | 1014.8 |
| 20260506094003 | 25 | 227 | 4.8 | 14.5 | 0.00 | 0.00 | 0.00 | 47 | 1014.9 |
| 20260506093502 | 25 | 260 | 3.2 | 12.9 | 0.00 | 0.00 | 0.00 | 48 | 1014.9 |
| 20260506093003 | 25 | 225 | 3.2 | 11.3 | 0.00 | 0.00 | 0.00 | 46 | 1014.9 |
| 20260506092503 | 25 | 113 | 1.6 | 6.4 | 0.00 | 0.00 | 0.00 | 48 | 1014.9 |
| 20260506092002 | 25 | 306 | 3.2 | 8.0 | 0.00 | 0.00 | 0.00 | 46 | 1014.9 |
| 20260506091502 | 25 | 200 | 1.6 | 8.0 | 0.00 | 0.00 | 0.00 | 47 | 1015.0 |
| 20260506091003 | 25 | 172 | 1.6 | 6.4 | 0.00 | 0.00 | 0.00 | 46 | 1015.0 |
| 20260506090503 | 25 | 211 | 3.2 | 6.4 | 0.00 | 0.00 | 0.00 | 49 | 1015.0 |
| 20260506090003 | 24 | 254 | 3.2 | 11.3 | 0.00 | 0.00 | 0.00 | 50 | 1015.0 |
| 20260506085500 | 24 | 263 | 1.6 | 8.0 | 0.00 | 0.00 | 0.00 | 47 | 1015.0 |
| 20260506085003 | 24 | 234 | 3.2 | 11.3 | 0.00 | 0.00 | 0.00 | 46 | 1015.0 |
| 20260506084502 | 24 | 234 | 4.8 | 11.3 | 0.00 | 0.00 | 0.00 | 48 | 1015.1 |
| 20260506084000 | 24 | 202 | 4.8 | 9.7 | 0.00 | 0.00 | 0.00 | 50 | 1015.0 |
| 20260506083503 | 23 | 225 | 1.6 | 9.7 | 0.00 | 0.00 | 0.00 | 50 | 1015.0 |
| 20260506083003 | 23 | 225 | 1.6 | 4.8 | 0.00 | 0.00 | 0.00 | 51 | 1015.0 |
| 20260506082503 | 23 | 212 | 1.6 | 6.4 | 0.00 | 0.00 | 0.00 | 50 | 1015.0 |
| 20260506082000 | 23 | 203 | 1.6 | 6.4 | 0.00 | 0.00 | 0.00 | 53 | 1015.0 |
| 20260506081503 | 23 | 297 | 1.6 | 6.4 | 0.00 | 0.00 | 0.00 | 51 | 1015.0 |
| 20260506081003 | 22 | 253 | 1.6 | 4.8 | 0.00 | 0.00 | 0.00 | 51 | 1015.0 |